This is the latest recevied weather packets stored in our database for station/object KE0TNI-13. If no packets are shown the sender has not sent any weather packets the latest 10 day(s).
| Time | Temp. | Humidity | Pressure | Rain* | Wind** | Luminosity | Snow |
|---|---|---|---|---|---|---|---|
| 1777928941 | 12.22° C | 39% | 1014 hPa | 0 mm | - | 187 W/m² | - |
| 1777928638 | 12.22° C | 38% | 1014.1 hPa | 0 mm | - | 219 W/m² | - |
| 1777928335 | 12.22° C | 37% | 1014.4 hPa | 0 mm | - | 215 W/m² | - |
| 1777928033 | 12.78° C | 38% | 1014.3 hPa | 0 mm | - | 226 W/m² | - |
| 1777927429 | 13.33° C | 38% | 1014.4 hPa | 0 mm | - | 552 W/m² | - |
| 1777926824 | 12.78° C | 41% | 1014.7 hPa | 0 mm | - | 371 W/m² | - |
| 1777926520 | 12.78° C | 41% | 1014.7 hPa | 0 mm | - | 725 W/m² | - |
| 1777925914 | 12.22° C | 41% | 1014.7 hPa | 0 mm | - | 599 W/m² | - |
| 1777925309 | 12.22° C | 41% | 1014.8 hPa | 0 mm | - | 162 W/m² | - |
| 1777925005 | 11.67° C | 45% | 1015.2 hPa | 0 mm | - | 217 W/m² | - |
| 1777924701 | 11.67° C | 43% | 1014.9 hPa | 0 mm | - | 263 W/m² | - |
| 1777923184 | 10.56° C | 42% | 1014.9 hPa | 0 mm | - | 162 W/m² | - |
| 1777922279 | 11.11° C | 40% | 1015 hPa | 0 mm | - | 197 W/m² | - |
| 1777921671 | 11.11° C | 40% | 1015.2 hPa | 0 mm | - | 253 W/m² | - |
| 1777921064 | 11.11° C | 38% | 1015.2 hPa | 0 mm | - | 197 W/m² | - |
| 1777920761 | 11.11° C | 39% | 1014.9 hPa | 0 mm | - | 160 W/m² | - |
| 1777919849 | 12.22° C | 37% | 1014.9 hPa | 0 mm | - | 128 W/m² | - |
| 1777919546 | 13.89° C | 34% | 1014.7 hPa | 0 mm | - | 142 W/m² | - |
| 1777919244 | 14.44° C | 34% | 1014.7 hPa | 0 mm | - | 187 W/m² | - |
| 1777918941 | 13.33° C | 33% | 1014.9 hPa | 0 mm | - | 420 W/m² | - |
| 1777918639 | 11.67° C | 29% | 1014.9 hPa | 0 mm | - | 511 W/m² | - |
| 1777918336 | 11.67° C | 30% | 1014.9 hPa | 0 mm | - | 183 W/m² | - |
| 1777918035 | 11.67° C | 30% | 1015.3 hPa | 0 mm | - | 161 W/m² | - |
| 1777917733 | 11.67° C | 32% | 1015.2 hPa | 0 mm | - | 146 W/m² | - |
| 1777917430 | 11.67° C | 30% | 1015 hPa | 0 mm | - | 130 W/m² | - |
* Rain latest hour (hover to see other rain measurements)
** Current wind speed in m/s (hover to see current wind gust speed)